| time (UTC) | temp C | wind direction | speed KPH | gust KPH | rain 1hr cm | rain 24hr cm | rain mn cm | humidity % | barometer mb |
| 20260905152545 | 15 | 158 | 3.2 | 8.0 | 0.00 | 0.00 | 0.00 | 45 | 1015.2 |
| 20260905152046 | 15 | 161 | 4.8 | 8.0 | 0.00 | 0.00 | 0.00 | 45 | 1015.2 |
| 20260905151603 | 15 | 161 | 0.0 | 3.2 | 0.00 | 0.00 | 0.00 | 47 | 1015.0 |
| 20260905151045 | 15 | 161 | 1.6 | 3.2 | 0.00 | 0.00 | 0.00 | 47 | 1015.1 |
| 20260905150544 | 15 | 161 | 1.6 | 6.4 | 0.00 | 0.00 | 0.00 | 50 | 1015.1 |
| 20260905150100 | 15 | 161 | 1.6 | 6.4 | 0.00 | 0.00 | 0.00 | 50 | 1015.1 |
| 20260905145545 | 15 | 161 | 1.6 | 6.4 | 0.00 | 0.00 | 0.00 | 50 | 1015.1 |
| 20260905145044 | 15 | 161 | 1.6 | 6.4 | 0.00 | 0.00 | 0.00 | 50 | 1015.0 |
| 20260905144554 | 14 | 161 | 0.0 | 6.4 | 0.00 | 0.00 | 0.00 | 51 | 1015.0 |
| 20260905144049 | 14 | 161 | 3.2 | 6.4 | 0.00 | 0.00 | 0.00 | 50 | 1015.0 |
| 20260905143545 | 14 | 162 | 0.0 | 0.0 | 0.00 | 0.00 | 0.00 | 48 | 1015.0 |
| 20260905143056 | 13 | 0 | 0.0 | 0.0 | 0.00 | 0.00 | 0.00 | 50 | 1015.0 |
| 20260905142545 | 13 | 0 | 0.0 | 0.0 | 0.00 | 0.00 | 0.00 | 52 | 1015.1 |
| 20260905142045 | 13 | 0 | 0.0 | 0.0 | 0.00 | 0.00 | 0.00 | 51 | 1015.0 |
| 20260905141602 | 13 | 0 | 0.0 | 0.0 | 0.00 | 0.00 | 0.00 | 52 | 1015.0 |
| 20260905141048 | 13 | 0 | 0.0 | 0.0 | 0.00 | 0.00 | 0.00 | 54 | 1015.0 |
| 20260905140545 | 13 | 0 | 0.0 | 0.0 | 0.00 | 0.00 | 0.00 | 54 | 1014.9 |
| 20260905140058 | 13 | 0 | 0.0 | 0.0 | 0.00 | 0.00 | 0.00 | 54 | 1014.9 |
| 20260905135546 | 13 | 0 | 0.0 | 0.0 | 0.00 | 0.00 | 0.00 | 54 | 1014.8 |
| 20260905135049 | 13 | 0 | 0.0 | 0.0 | 0.00 | 0.00 | 0.00 | 54 | 1014.8 |
| 20260905134558 | 13 | 0 | 0.0 | 0.0 | 0.00 | 0.00 | 0.00 | 54 | 1014.7 |
| 20260905134045 | 13 | 0 | 0.0 | 0.0 | 0.00 | 0.00 | 0.00 | 56 | 1014.7 |
| 20260905133545 | 12 | 0 | 0.0 | 0.0 | 0.00 | 0.00 | 0.00 | 57 | 1014.7 |
| 20260905133052 | 12 | 0 | 0.0 | 0.0 | 0.00 | 0.00 | 0.00 | 57 | 1014.7 |
| 20260905132548 | 12 | 0 | 0.0 | 0.0 | 0.00 | 0.00 | 0.00 | 57 | 1014.6 |
| 20260905132046 | 12 | 0 | 0.0 | 0.0 | 0.00 | 0.00 | 0.00 | 57 | 1014.7 |
| 20260905131605 | 12 | 0 | 0.0 | 0.0 | 0.00 | 0.00 | 0.00 | 57 | 1014.6 |
| 20260905131045 | 12 | 0 | 0.0 | 0.0 | 0.00 | 0.00 | 0.00 | 58 | 1014.7 |
| 20260905130545 | 12 | 0 | 0.0 | 0.0 | 0.00 | 0.00 | 0.00 | 58 | 1014.7 |
| 20260905130059 | 12 | 0 | 0.0 | 0.0 | 0.00 | 0.00 | 0.00 | 58 | 1014.7 |
| 20260905125544 | 12 | 0 | 0.0 | 0.0 | 0.00 | 0.00 | 0.00 | 60 | 1014.7 |
| 20260905125044 | 13 | 0 | 0.0 | 0.0 | 0.00 | 0.00 | 0.00 | 58 | 1014.7 |
| 20260905124555 | 13 | 0 | 0.0 | 0.0 | 0.00 | 0.00 | 0.00 | 60 | 1014.8 |
| 20260905124044 | 13 | 0 | 0.0 | 0.0 | 0.00 | 0.00 | 0.00 | 58 | 1014.7 |
| 20260905123545 | 13 | 0 | 0.0 | 0.0 | 0.00 | 0.00 | 0.00 | 58 | 1014.9 |
| 20260905123108 | 13 | 0 | 0.0 | 3.2 | 0.00 | 0.00 | 0.00 | 58 | 1014.8 |
| 20260905122545 | 13 | 0 | 0.0 | 3.2 | 0.00 | 0.00 | 0.00 | 58 | 1014.8 |
| 20260905122047 | 13 | 0 | 0.0 | 3.2 | 0.00 | 0.00 | 0.00 | 58 | 1014.8 |
| 20260905121559 | 13 | 0 | 0.0 | 4.8 | 0.00 | 0.00 | 0.00 | 58 | 1014.7 |
| 20260905121045 | 13 | 328 | 1.6 | 4.8 | 0.00 | 0.00 | 0.00 | 58 | 1014.7 |
| 20260905120549 | 13 | 328 | 1.6 | 4.8 | 0.00 | 0.00 | 0.00 | 59 | 1014.7 |
| 20260905115544 | 13 | 328 | 1.6 | 4.8 | 0.00 | 0.03 | 0.00 | 57 | 1014.7 |
| 20260905115044 | 13 | 328 | 1.6 | 6.4 | 0.00 | 0.03 | 0.00 | 56 | 1014.6 |
| 20260905114555 | 13 | 328 | 3.2 | 8.0 | 0.00 | 0.03 | 0.00 | 55 | 1014.6 |
| 20260905114044 | 13 | 328 | 3.2 | 8.0 | 0.00 | 0.03 | 0.00 | 54 | 1014.5 |
| 20260905113544 | 13 | 328 | 3.2 | 8.0 | 0.00 | 0.03 | 0.00 | 53 | 1014.5 |
| 20260905113100 | 13 | 328 | 4.8 | 8.0 | 0.00 | 0.03 | 0.00 | 52 | 1014.4 |
| 20260905112545 | 13 | 317 | 4.8 | 8.0 | 0.00 | 0.03 | 0.00 | 51 | 1014.5 |
| 20260905112044 | 13 | 315 | 4.8 | 9.7 | 0.00 | 0.03 | 0.00 | 51 | 1014.5 |
| 20260905111645 | 13 | 316 | 4.8 | 11.3 | 0.00 | 0.03 | 0.00 | 51 | 1014.4 |
| 20260905111045 | 13 | 330 | 6.4 | 11.3 | 0.00 | 0.03 | 0.00 | 51 | 1014.5 |
| 20260905110545 | 13 | 313 | 6.4 | 9.7 | 0.00 | 0.03 | 0.00 | 53 | 1014.5 |
| 20260905110055 | 13 | 319 | 4.8 | 9.7 | 0.00 | 0.03 | 0.00 | 54 | 1014.5 |
| 20260905105545 | 13 | 320 | 6.4 | 12.9 | 0.00 | 0.03 | 0.00 | 55 | 1014.6 |
| 20260905105045 | 13 | 319 | 4.8 | 16.1 | 0.00 | 0.03 | 0.00 | 57 | 1014.5 |
| 20260905104601 | 13 | 305 | 6.4 | 16.1 | 0.00 | 0.03 | 0.00 | 58 | 1014.4 |
| 20260905104045 | 12 | 313 | 11.3 | 16.1 | 0.00 | 0.03 | 0.00 | 59 | 1014.5 |
| 20260905103547 | 12 | 317 | 11.3 | 14.5 | 0.00 | 0.03 | 0.00 | 61 | 1014.4 |
| 20260905103102 | 12 | 319 | 9.7 | 16.1 | 0.00 | 0.03 | 0.00 | 63 | 1014.5 |
| 20260905102544 | 11 | 322 | 9.7 | 16.1 | 0.00 | 0.03 | 0.00 | 66 | 1014.6 |
| 20260905102045 | 11 | 323 | 9.7 | 16.1 | 0.00 | 0.03 | 0.00 | 68 | 1014.6 |
| 20260905101559 | 11 | 320 | 9.7 | 14.5 | 0.00 | 0.03 | 0.00 | 72 | 1014.6 |
| 20260905101045 | 11 | 301 | 8.0 | 12.9 | 0.00 | 0.03 | 0.00 | 72 | 1014.6 |
| 20260905100544 | 11 | 317 | 8.0 | 12.9 | 0.00 | 0.03 | 0.00 | 70 | 1014.7 |
| 20260905100218 | 11 | 313 | 8.0 | 12.9 | 0.00 | 0.03 | 0.00 | 68 | 1014.7 |
| 20260905095543 | 12 | 323 | 8.0 | 14.5 | 0.00 | 0.03 | 0.00 | 67 | 1014.6 |
| 20260905095043 | 12 | 319 | 6.4 | 14.5 | 0.00 | 0.03 | 0.00 | 66 | 1014.7 |
| 20260905094558 | 12 | 303 | 8.0 | 12.9 | 0.00 | 0.03 | 0.00 | 63 | 1014.8 |
| 20260905094043 | 12 | 317 | 8.0 | 12.9 | 0.00 | 0.03 | 0.00 | 61 | 1014.7 |
| 20260905093547 | 12 | 317 | 8.0 | 14.5 | 0.00 | 0.03 | 0.00 | 60 | 1014.7 |
| 20260905093056 | 12 | 320 | 8.0 | 14.5 | 0.00 | 0.03 | 0.00 | 60 | 1014.9 |
| 20260905092546 | 12 | 311 | 9.7 | 16.1 | 0.00 | 0.03 | 0.00 | 59 | 1014.8 |
| 20260905092043 | 12 | 319 | 11.3 | 16.1 | 0.00 | 0.03 | 0.00 | 60 | 1014.9 |
| 20260905091604 | 12 | 313 | 11.3 | 16.1 | 0.00 | 0.03 | 0.00 | 60 | 1014.9 |
| 20260905091044 | 12 | 324 | 12.9 | 16.1 | 0.00 | 0.03 | 0.00 | 61 | 1015.0 |
| 20260905090544 | 12 | 321 | 12.9 | 16.1 | 0.00 | 0.03 | 0.00 | 60 | 1015.0 |
| 20260905090056 | 12 | 318 | 11.3 | 16.1 | 0.00 | 0.03 | 0.00 | 59 | 1015.0 |
| 20260905085545 | 12 | 304 | 11.3 | 16.1 | 0.00 | 0.03 | 0.00 | 60 | 1015.1 |
| 20260905085045 | 12 | 311 | 9.7 | 16.1 | 0.00 | 0.03 | 0.00 | 59 | 1015.2 |
| 20260905084553 | 12 | 306 | 9.7 | 16.1 | 0.00 | 0.03 | 0.00 | 58 | 1015.2 |
| 20260905084041 | 12 | 315 | 9.7 | 12.9 | 0.00 | 0.03 | 0.00 | 59 | 1015.1 |
| 20260905083543 | 12 | 314 | 6.4 | 12.9 | 0.00 | 0.03 | 0.00 | 60 | 1015.2 |
| 20260905083050 | 12 | 302 | 6.4 | 12.9 | 0.00 | 0.03 | 0.00 | 60 | 1015.3 |
| 20260905082543 | 12 | 315 | 8.0 | 12.9 | 0.00 | 0.03 | 0.00 | 60 | 1015.1 |
| 20260905082044 | 11 | 323 | 8.0 | 12.9 | 0.00 | 0.03 | 0.00 | 63 | 1015.2 |
| 20260905081604 | 11 | 327 | 4.8 | 9.7 | 0.00 | 0.03 | 0.00 | 65 | 1015.2 |
| 20260905081043 | 11 | 316 | 4.8 | 8.0 | 0.00 | 0.03 | 0.00 | 66 | 1015.2 |
| 20260905080543 | 11 | 327 | 3.2 | 8.0 | 0.00 | 0.03 | 0.00 | 67 | 1015.1 |
| 20260905075547 | 12 | 319 | 4.8 | 11.3 | 0.00 | 0.03 | 0.00 | 64 | 1015.2 |
| 20260905075041 | 12 | 319 | 6.4 | 12.9 | 0.00 | 0.03 | 0.00 | 61 | 1015.2 |
| 20260905074551 | 12 | 312 | 6.4 | 12.9 | 0.00 | 0.03 | 0.00 | 58 | 1015.3 |
| 20260905074043 | 12 | 310 | 8.0 | 12.9 | 0.00 | 0.03 | 0.00 | 58 | 1015.2 |
| 20260905073543 | 13 | 301 | 6.4 | 11.3 | 0.00 | 0.03 | 0.00 | 58 | 1015.2 |
| 20260905073100 | 13 | 317 | 6.4 | 9.7 | 0.00 | 0.03 | 0.00 | 57 | 1015.2 |
| 20260905072541 | 13 | 315 | 6.4 | 9.7 | 0.00 | 0.03 | 0.00 | 57 | 1015.2 |
| 20260905072043 | 12 | 315 | 4.8 | 12.9 | 0.00 | 0.03 | 0.00 | 57 | 1015.3 |
| 20260905071559 | 12 | 321 | 6.4 | 12.9 | 0.00 | 0.03 | 0.00 | 57 | 1015.2 |
| 20260905071043 | 12 | 318 | 6.4 | 12.9 | 0.00 | 0.03 | 0.00 | 58 | 1015.2 |
| 20260905070543 | 12 | 317 | 8.0 | 12.9 | 0.00 | 0.03 | 0.00 | 59 | 1015.3 |
| 20260905070100 | 12 | 313 | 8.0 | 12.9 | 0.00 | 0.03 | 0.00 | 60 | 1015.2 |
| 20260905065543 | 12 | 313 | 8.0 | 12.9 | 0.00 | 0.13 | 0.03 | 61 | 1015.1 |
| 20260905065040 | 13 | 319 | 6.4 | 12.9 | 0.00 | 0.13 | 0.03 | 58 | 1015.1 |
| 20260905064601 | 13 | 312 | 8.0 | 16.1 | 0.00 | 0.13 | 0.03 | 58 | 1015.2 |
| 20260905064040 | 12 | 315 | 9.7 | 16.1 | 0.00 | 0.13 | 0.03 | 58 | 1015.2 |
| 20260905063543 | 12 | 321 | 9.7 | 16.1 | 0.00 | 0.13 | 0.03 | 58 | 1015.1 |
| 20260905063103 | 12 | 316 | 8.0 | 14.5 | 0.00 | 0.13 | 0.03 | 60 | 1015.1 |
| 20260905062544 | 12 | 323 | 6.4 | 12.9 | 0.00 | 0.13 | 0.03 | 61 | 1015.2 |
| 20260905062044 | 12 | 321 | 8.0 | 12.9 | 0.00 | 0.13 | 0.03 | 61 | 1015.2 |
| 20260905061609 | 12 | 319 | 6.4 | 14.5 | 0.00 | 0.13 | 0.03 | 61 | 1015.3 |
| 20260905061043 | 12 | 313 | 6.4 | 16.1 | 0.00 | 0.13 | 0.03 | 61 | 1015.2 |
| 20260905060543 | 12 | 315 | 9.7 | 16.1 | 0.00 | 0.13 | 0.03 | 61 | 1015.2 |
| 20260905060058 | 12 | 321 | 9.7 | 17.7 | 0.00 | 0.13 | 0.03 | 63 | 1015.2 |
| 20260905055544 | 12 | 319 | 12.9 | 17.7 | 0.00 | 0.15 | 0.03 | 64 | 1015.1 |
| 20260905055043 | 12 | 321 | 12.9 | 17.7 | 0.00 | 0.15 | 0.03 | 66 | 1015.2 |
| 20260905054552 | 12 | 318 | 9.7 | 17.7 | 0.00 | 0.15 | 0.03 | 67 | 1015.3 |
| 20260905054047 | 11 | 298 | 11.3 | 16.1 | 0.00 | 0.15 | 0.03 | 69 | 1015.3 |
| 20260905053545 | 11 | 315 | 11.3 | 14.5 | 0.00 | 0.15 | 0.03 | 72 | 1015.4 |
| 20260905053103 | 11 | 316 | 11.3 | 14.5 | 0.00 | 0.15 | 0.03 | 79 | 1015.4 |
| 20260905052545 | 11 | 313 | 8.0 | 14.5 | 0.00 | 0.15 | 0.03 | 80 | 1015.4 |
| 20260905052044 | 11 | 305 | 9.7 | 16.1 | 0.00 | 0.15 | 0.03 | 79 | 1015.5 |
| 20260905051558 | 12 | 319 | 9.7 | 16.1 | 0.00 | 0.15 | 0.03 | 78 | 1015.5 |
| 20260905051043 | 12 | 309 | 11.3 | 16.1 | 0.00 | 0.15 | 0.03 | 78 | 1015.5 |
| 20260905050543 | 12 | 308 | 11.3 | 16.1 | 0.00 | 0.15 | 0.03 | 75 | 1015.6 |
| 20260905050059 | 12 | 310 | 9.7 | 16.1 | 0.00 | 0.15 | 0.03 | 71 | 1015.6 |
| 20260905045544 | 12 | 319 | 11.3 | 16.1 | 0.00 | 0.15 | 0.03 | 68 | 1015.5 |
| 20260905045040 | 12 | 302 | 11.3 | 14.5 | 0.00 | 0.15 | 0.03 | 68 | 1015.5 |
| 20260905044603 | 12 | 319 | 9.7 | 14.5 | 0.00 | 0.15 | 0.03 | 68 | 1015.5 |
| 20260905044043 | 12 | 303 | 9.7 | 14.5 | 0.00 | 0.15 | 0.03 | 70 | 1015.6 |
| 20260905043543 | 12 | 319 | 8.0 | 14.5 | 0.00 | 0.15 | 0.03 | 72 | 1015.6 |
| 20260905043051 | 12 | 315 | 8.0 | 14.5 | 0.00 | 0.15 | 0.03 | 75 | 1015.4 |
| 20260905042543 | 12 | 316 | 6.4 | 14.5 | 0.00 | 0.15 | 0.03 | 77 | 1015.6 |
| 20260905042044 | 12 | 317 | 8.0 | 14.5 | 0.00 | 0.15 | 0.03 | 78 | 1015.4 |
| 20260905041558 | 12 | 319 | 8.0 | 14.5 | 0.00 | 0.15 | 0.03 | 76 | 1015.5 |
| 20260905041044 | 12 | 300 | 9.7 | 16.1 | 0.00 | 0.15 | 0.03 | 72 | 1015.4 |
| 20260905040546 | 12 | 313 | 12.9 | 16.1 | 0.00 | 0.15 | 0.03 | 71 | 1015.4 |
| 20260905040056 | 12 | 314 | 11.3 | 14.5 | 0.00 | 0.15 | 0.03 | 73 | 1015.4 |
| 20260905035543 | 12 | 314 | 9.7 | 14.5 | 0.00 | 0.15 | 0.03 | 76 | 1015.4 |
| 20260905035044 | 12 | 319 | 8.0 | 12.9 | 0.00 | 0.15 | 0.03 | 77 | 1015.4 |
| 20260905034607 | 12 | 317 | 8.0 | 12.9 | 0.00 | 0.15 | 0.03 | 79 | 1015.4 |
| 20260905034044 | 12 | 311 | 6.4 | 12.9 | 0.00 | 0.15 | 0.03 | 79 | 1015.3 |
| 20260905033543 | 12 | 313 | 6.4 | 12.9 | 0.00 | 0.15 | 0.03 | 79 | 1015.2 |
| 20260905033103 | 12 | 324 | 6.4 | 12.9 | 0.00 | 0.15 | 0.03 | 78 | 1015.2 |
| 20260905032544 | 12 | 313 | 6.4 | 11.3 | 0.00 | 0.15 | 0.03 | 77 | 1015.1 |
| 20260905032043 | 13 | 310 | 4.8 | 8.0 | 0.00 | 0.15 | 0.03 | 76 | 1015.1 |
| 20260905031554 | 13 | 320 | 4.8 | 8.0 | 0.00 | 0.15 | 0.03 | 75 | 1015.1 |
| 20260905031044 | 13 | 307 | 3.2 | 8.0 | 0.00 | 0.15 | 0.03 | 74 | 1015.1 |
| 20260905030543 | 13 | 311 | 3.2 | 11.3 | 0.00 | 0.15 | 0.03 | 72 | 1015.0 |
| 20260905025543 | 13 | 311 | 4.8 | 12.9 | 0.00 | 0.15 | 0.03 | 70 | 1015.0 |
| 20260905025043 | 13 | 303 | 6.4 | 11.3 | 0.00 | 0.15 | 0.03 | 70 | 1015.1 |
| 20260905024555 | 13 | 309 | 6.4 | 12.9 | 0.00 | 0.15 | 0.03 | 71 | 1015.0 |
| 20260905024118 | 13 | 309 | 4.8 | 12.9 | 0.00 | 0.15 | 0.03 | 72 | 1015.0 |
| 20260905023543 | 14 | 313 | 4.8 | 12.9 | 0.00 | 0.15 | 0.03 | 71 | 1015.0 |
| 20260905023101 | 14 | 309 | 8.0 | 12.9 | 0.00 | 0.15 | 0.03 | 69 | 1015.0 |
| 20260905022543 | 14 | 315 | 4.8 | 12.9 | 0.00 | 0.15 | 0.03 | 68 | 1015.0 |
| 20260905022043 | 15 | 307 | 3.2 | 11.3 | 0.00 | 0.15 | 0.03 | 67 | 1015.0 |
| 20260905021557 | 15 | 299 | 3.2 | 14.5 | 0.00 | 0.15 | 0.03 | 65 | 1014.9 |
| 20260905021044 | 15 | 293 | 4.8 | 14.5 | 0.00 | 0.15 | 0.03 | 64 | 1014.9 |
| 20260905020543 | 15 | 324 | 6.4 | 12.9 | 0.00 | 0.15 | 0.03 | 63 | 1014.8 |
| 20260905020105 | 15 | 331 | 8.0 | 12.9 | 0.00 | 0.15 | 0.03 | 62 | 1014.8 |
| 20260905015543 | 15 | 309 | 4.8 | 11.3 | 0.00 | 0.15 | 0.03 | 61 | 1014.9 |
| 20260905015046 | 16 | 302 | 6.4 | 11.3 | 0.00 | 0.15 | 0.03 | 60 | 1014.7 |
| 20260905014604 | 16 | 296 | 4.8 | 12.9 | 0.00 | 0.15 | 0.03 | 59 | 1014.8 |
| 20260905014047 | 16 | 302 | 6.4 | 16.1 | 0.00 | 0.15 | 0.03 | 58 | 1014.8 |
| 20260905013544 | 16 | 306 | 8.0 | 16.1 | 0.00 | 0.15 | 0.03 | 58 | 1014.7 |
| 20260905013059 | 16 | 300 | 9.7 | 16.1 | 0.00 | 0.15 | 0.03 | 57 | 1014.8 |
| 20260905012544 | 16 | 296 | 9.7 | 16.1 | 0.00 | 0.15 | 0.03 | 56 | 1014.8 |
| 20260905012044 | 16 | 317 | 8.0 | 14.5 | 0.00 | 0.15 | 0.03 | 55 | 1014.9 |
| 20260905011559 | 17 | 297 | 6.4 | 12.9 | 0.00 | 0.15 | 0.03 | 53 | 1014.8 |
| 20260905011043 | 17 | 300 | 8.0 | 12.9 | 0.00 | 0.15 | 0.03 | 53 | 1014.9 |
| 20260905010544 | 17 | 300 | 8.0 | 12.9 | 0.00 | 0.15 | 0.03 | 52 | 1014.9 |
| 20260905010100 | 17 | 301 | 6.4 | 12.9 | 0.00 | 0.15 | 0.03 | 53 | 1014.9 |
| 20260905005544 | 17 | 319 | 6.4 | 14.5 | 0.00 | 0.15 | 0.03 | 52 | 1014.8 |
| 20260905005044 | 17 | 308 | 8.0 | 14.5 | 0.00 | 0.15 | 0.03 | 51 | 1014.9 |
| 20260905004610 | 17 | 302 | 6.4 | 12.9 | 0.00 | 0.15 | 0.03 | 52 | 1014.8 |
| 20260905004040 | 17 | 304 | 6.4 | 12.9 | 0.00 | 0.15 | 0.03 | 53 | 1014.8 |
| 20260905003544 | 17 | 306 | 6.4 | 12.9 | 0.00 | 0.15 | 0.03 | 53 | 1014.9 |
| 20260905003051 | 17 | 304 | 6.4 | 12.9 | 0.00 | 0.15 | 0.03 | 52 | 1015.0 |
| 20260905002543 | 18 | 304 | 6.4 | 12.9 | 0.00 | 0.15 | 0.03 | 53 | 1014.9 |
| 20260905002046 | 18 | 304 | 6.4 | 12.9 | 0.00 | 0.15 | 0.03 | 53 | 1014.9 |
| 20260905001608 | 18 | 295 | 4.8 | 12.9 | 0.00 | 0.15 | 0.03 | 54 | 1014.9 |
| 20260905001046 | 18 | 307 | 4.8 | 12.9 | 0.00 | 0.15 | 0.03 | 54 | 1014.8 |
| 20260905000545 | 18 | 298 | 3.2 | 12.9 | 0.00 | 0.15 | 0.03 | 53 | 1014.9 |
| 20260905000109 | 18 | 307 | 4.8 | 14.5 | 0.00 | 0.15 | 0.03 | 53 | 1014.9 |
| 20260904235544 | 18 | 304 | 6.4 | 14.5 | 0.00 | 0.15 | 0.03 | 53 | 1014.9 |
| 20260904235043 | 18 | 301 | 4.8 | 14.5 | 0.00 | 0.15 | 0.03 | 52 | 1014.8 |
| 20260904234607 | 18 | 311 | 8.0 | 14.5 | 0.00 | 0.15 | 0.03 | 53 | 1014.9 |
| 20260904234048 | 18 | 298 | 8.0 | 16.1 | 0.00 | 0.15 | 0.03 | 53 | 1014.9 |
| 20260904233546 | 18 | 315 | 11.3 | 16.1 | 0.00 | 0.15 | 0.03 | 53 | 1014.9 |
| 20260904233106 | 18 | 308 | 8.0 | 14.5 | 0.00 | 0.15 | 0.03 | 53 | 1014.9 |
| 20260904232544 | 18 | 297 | 6.4 | 14.5 | 0.00 | 0.15 | 0.03 | 52 | 1014.9 |
| 20260904232046 | 18 | 315 | 6.4 | 14.5 | 0.00 | 0.15 | 0.03 | 51 | 1015.0 |
| 20260904231607 | 19 | 310 | 4.8 | 14.5 | 0.00 | 0.15 | 0.03 | 50 | 1014.9 |
| 20260904231043 | 19 | 312 | 4.8 | 12.9 | 0.00 | 0.15 | 0.03 | 51 | 1014.9 |
| 20260904230545 | 19 | 311 | 4.8 | 12.9 | 0.00 | 0.15 | 0.03 | 51 | 1015.0 |
| 20260904230058 | 19 | 309 | 3.2 | 12.9 | 0.00 | 0.15 | 0.03 | 51 | 1015.0 |
| 20260904225544 | 19 | 304 | 6.4 | 12.9 | 0.00 | 0.15 | 0.03 | 50 | 1015.0 |
| 20260904225047 | 19 | 324 | 1.6 | 11.3 | 0.00 | 0.15 | 0.03 | 49 | 1015.0 |
| 20260904224557 | 19 | 313 | 3.2 | 11.3 | 0.00 | 0.15 | 0.03 | 48 | 1015.1 |
| 20260904224044 | 19 | 308 | 4.8 | 9.7 | 0.00 | 0.15 | 0.03 | 48 | 1015.1 |
| 20260904223544 | 19 | 320 | 3.2 | 14.5 | 0.00 | 0.15 | 0.03 | 49 | 1015.1 |
| 20260904223052 | 19 | 321 | 6.4 | 14.5 | 0.00 | 0.15 | 0.03 | 47 | 1015.2 |
| 20260904222543 | 19 | 312 | 4.8 | 14.5 | 0.00 | 0.15 | 0.03 | 45 | 1015.2 |
| 20260904222046 | 20 | 301 | 6.4 | 12.9 | 0.00 | 0.15 | 0.03 | 44 | 1015.2 |
| 20260904221604 | 20 | 309 | 6.4 | 12.9 | 0.00 | 0.15 | 0.03 | 42 | 1015.2 |
| 20260904221044 | 20 | 315 | 3.2 | 12.9 | 0.00 | 0.15 | 0.03 | 43 | 1015.3 |
| 20260904220544 | 20 | 224 | 1.6 | 12.9 | 0.00 | 0.15 | 0.03 | 41 | 1015.3 |
| 20260904215543 | 20 | 316 | 1.6 | 11.3 | 0.00 | 0.15 | 0.03 | 41 | 1015.3 |
| 20260904215043 | 20 | 313 | 3.2 | 11.3 | 0.00 | 0.15 | 0.03 | 39 | 1015.3 |
| 20260904214549 | 20 | 308 | 1.6 | 6.4 | 0.00 | 0.15 | 0.03 | 38 | 1015.3 |
| 20260904214047 | 20 | 224 | 0.0 | 14.5 | 0.00 | 0.15 | 0.03 | 42 | 1015.4 |
| 20260904213545 | 20 | 272 | 3.2 | 14.5 | 0.00 | 0.15 | 0.03 | 44 | 1015.3 |
| 20260904213051 | 20 | 303 | 3.2 | 8.0 | 0.00 | 0.15 | 0.03 | 40 | 1015.4 |
| 20260904212547 | 20 | 315 | 3.2 | 8.0 | 0.00 | 0.15 | 0.03 | 45 | 1015.3 |
| 20260904212043 | 20 | 47 | 0.0 | 4.8 | 0.00 | 0.15 | 0.03 | 47 | 1015.4 |
| 20260904211608 | 19 | 0 | 1.6 | 12.9 | 0.00 | 0.15 | 0.03 | 47 | 1015.3 |
| 20260904211046 | 19 | 308 | 1.6 | 12.9 | 0.00 | 0.15 | 0.03 | 46 | 1015.4 |
| 20260904210544 | 19 | 308 | 6.4 | 12.9 | 0.00 | 0.15 | 0.03 | 44 | 1015.3 |
| 20260904210056 | 19 | 322 | 1.6 | 9.7 | 0.00 | 0.15 | 0.03 | 46 | 1015.3 |
| 20260904205546 | 19 | 323 | 3.2 | 11.3 | 0.00 | 0.15 | 0.03 | 48 | 1015.3 |
| 20260904205044 | 19 | 327 | 3.2 | 11.3 | 0.00 | 0.15 | 0.03 | 49 | 1015.3 |
| 20260904204558 | 19 | 0 | 0.0 | 6.4 | 0.00 | 0.15 | 0.03 | 49 | 1015.3 |
| 20260904204045 | 18 | 342 | 3.2 | 12.9 | 0.00 | 0.15 | 0.03 | 47 | 1015.3 |
| 20260904203548 | 18 | 325 | 4.8 | 12.9 | 0.00 | 0.15 | 0.03 | 48 | 1015.3 |
| 20260904203114 | 18 | 306 | 3.2 | 12.9 | 0.00 | 0.15 | 0.03 | 54 | 1015.3 |
| 20260904202541 | 18 | 315 | 3.2 | 11.3 | 0.00 | 0.15 | 0.03 | 52 | 1015.2 |
| 20260904202044 | 18 | 294 | 1.6 | 8.0 | 0.00 | 0.15 | 0.03 | 54 | 1015.2 |
| 20260904201600 | 18 | 298 | 3.2 | 6.4 | 0.00 | 0.15 | 0.03 | 56 | 1015.1 |
| 20260904201044 | 18 | 329 | 3.2 | 6.4 | 0.00 | 0.15 | 0.03 | 59 | 1015.1 |
| 20260904200543 | 18 | 319 | 1.6 | 8.0 | 0.00 | 0.15 | 0.03 | 57 | 1015.1 |
| 20260904200120 | 18 | 310 | 3.2 | 8.0 | 0.00 | 0.15 | 0.03 | 58 | 1015.2 |
| 20260904195545 | 17 | 310 | 3.2 | 14.5 | 0.00 | 0.15 | 0.03 | 58 | 1015.1 |
| 20260904195045 | 17 | 285 | 3.2 | 14.5 | 0.00 | 0.15 | 0.03 | 59 | 1015.2 |
| 20260904194606 | 18 | 311 | 6.4 | 14.5 | 0.00 | 0.15 | 0.03 | 58 | 1015.2 |
| 20260904194044 | 17 | 325 | 1.6 | 11.3 | 0.00 | 0.15 | 0.03 | 60 | 1015.2 |
| 20260904193546 | 17 | 310 | 6.4 | 11.3 | 0.00 | 0.15 | 0.03 | 58 | 1015.3 |
| 20260904193101 | 17 | 209 | 3.2 | 14.5 | 0.00 | 0.15 | 0.03 | 61 | 1015.3 |
| 20260904192543 | 18 | 312 | 4.8 | 14.5 | 0.00 | 0.15 | 0.03 | 59 | 1015.3 |
| 20260904192043 | 17 | 289 | 1.6 | 6.4 | 0.00 | 0.15 | 0.03 | 61 | 1015.4 |
| 20260904191600 | 17 | 239 | 1.6 | 6.4 | 0.00 | 0.15 | 0.03 | 62 | 1015.5 |
| 20260904191043 | 17 | 0 | 1.6 | 6.4 | 0.00 | 0.15 | 0.03 | 62 | 1015.6 |
| 20260904190546 | 17 | 331 | 1.6 | 4.8 | 0.00 | 0.15 | 0.03 | 63 | 1015.6 |
| 20260904190058 | 17 | 0 | 1.6 | 6.4 | 0.00 | 0.15 | 0.03 | 62 | 1015.5 |
| 20260904185546 | 16 | 331 | 1.6 | 6.4 | 0.00 | 0.15 | 0.03 | 62 | 1015.7 |
| 20260904185044 | 16 | 334 | 1.6 | 8.0 | 0.00 | 0.15 | 0.03 | 63 | 1015.7 |
| 20260904184554 | 16 | 0 | 3.2 | 8.0 | 0.00 | 0.15 | 0.03 | 63 | 1015.8 |
| 20260904184044 | 16 | 315 | 3.2 | 8.0 | 0.00 | 0.15 | 0.03 | 61 | 1015.8 |
| 20260904183544 | 16 | 314 | 1.6 | 8.0 | 0.00 | 0.15 | 0.03 | 63 | 1015.7 |
| 20260904183101 | 16 | 315 | 3.2 | 8.0 | 0.00 | 0.15 | 0.03 | 65 | 1015.7 |
| 20260904182544 | 16 | 332 | 3.2 | 8.0 | 0.00 | 0.15 | 0.03 | 67 | 1015.7 |
| 20260904182043 | 16 | 329 | 3.2 | 6.4 | 0.00 | 0.15 | 0.03 | 66 | 1015.7 |
| 20260904181557 | 15 | 323 | 3.2 | 6.4 | 0.00 | 0.15 | 0.03 | 69 | 1015.7 |
| 20260904181043 | 15 | 321 | 1.6 | 6.4 | 0.00 | 0.15 | 0.03 | 68 | 1015.7 |
| 20260904180546 | 15 | 294 | 1.6 | 4.8 | 0.00 | 0.15 | 0.03 | 69 | 1015.7 |
| 20260904180107 | 15 | 254 | 1.6 | 8.0 | 0.00 | 0.15 | 0.03 | 71 | 1015.7 |
| 20260904175543 | 15 | 238 | 3.2 | 8.0 | 0.00 | 0.15 | 0.03 | 70 | 1015.7 |
| 20260904175044 | 15 | 0 | 0.0 | 0.0 | 0.00 | 0.15 | 0.03 | 71 | 1015.6 |
| 20260904174607 | 15 | 0 | 0.0 | 1.6 | 0.00 | 0.15 | 0.03 | 70 | 1015.8 |
| 20260904174043 | 15 | 0 | 0.0 | 1.6 | 0.00 | 0.15 | 0.03 | 70 | 1015.7 |
| 20260904173545 | 15 | 0 | 0.0 | 1.6 | 0.00 | 0.15 | 0.03 | 70 | 1015.7 |
| 20260904173102 | 14 | 0 | 0.0 | 1.6 | 0.00 | 0.15 | 0.03 | 71 | 1015.6 |
| 20260904172545 | 14 | 0 | 0.0 | 0.0 | 0.00 | 0.15 | 0.03 | 72 | 1015.5 |
| 20260904172043 | 14 | 0 | 0.0 | 0.0 | 0.00 | 0.15 | 0.03 | 74 | 1015.4 |
| 20260904171603 | 14 | 0 | 0.0 | 3.2 | 0.00 | 0.15 | 0.03 | 75 | 1015.4 |
| 20260904171043 | 13 | 0 | 0.0 | 4.8 | 0.00 | 0.15 | 0.03 | 73 | 1015.4 |
| 20260904170543 | 13 | 311 | 1.6 | 4.8 | 0.00 | 0.15 | 0.03 | 73 | 1015.4 |
| 20260904170059 | 13 | 325 | 1.6 | 4.8 | 0.00 | 0.15 | 0.03 | 77 | 1015.4 |
| 20260904165543 | 13 | 325 | 0.0 | 4.8 | 0.00 | 0.15 | 0.03 | 78 | 1015.4 |
| 20260904165044 | 13 | 325 | 0.0 | 4.8 | 0.00 | 0.15 | 0.03 | 79 | 1015.2 |
| 20260904164556 | 13 | 325 | 0.0 | 4.8 | 0.00 | 0.15 | 0.03 | 78 | 1015.2 |
| 20260904164044 | 13 | 325 | 1.6 | 6.4 | 0.00 | 0.15 | 0.03 | 78 | 1015.1 |
| 20260904163544 | 13 | 325 | 1.6 | 6.4 | 0.00 | 0.15 | 0.03 | 79 | 1015.0 |
| 20260904163101 | 13 | 325 | 3.2 | 6.4 | 0.00 | 0.15 | 0.03 | 79 | 1015.0 |
| 20260904162544 | 13 | 325 | 1.6 | 6.4 | 0.00 | 0.15 | 0.03 | 78 | 1014.9 |
| 20260904162044 | 13 | 325 | 1.6 | 6.4 | 0.00 | 0.15 | 0.03 | 78 | 1014.9 |
| 20260904161617 | 13 | 325 | 3.2 | 6.4 | 0.00 | 0.15 | 0.03 | 76 | 1014.8 |
| 20260904161043 | 13 | 325 | 3.2 | 6.4 | 0.00 | 0.15 | 0.03 | 76 | 1014.7 |
| 20260904160544 | 13 | 325 | 3.2 | 6.4 | 0.00 | 0.15 | 0.03 | 71 | 1014.6 |
| 20260904160107 | 13 | 325 | 3.2 | 6.4 | 0.00 | 0.15 | 0.03 | 71 | 1014.5 |
| 20260904155544 | 13 | 325 | 1.6 | 6.4 | 0.00 | 0.15 | 0.03 | 69 | 1014.5 |
| 20260904155043 | 13 | 325 | 3.2 | 8.0 | 0.00 | 0.15 | 0.03 | 68 | 1014.4 |
| 20260904154605 | 13 | 325 | 3.2 | 8.0 | 0.00 | 0.15 | 0.03 | 68 | 1014.4 |
| 20260904154043 | 13 | 325 | 3.2 | 6.4 | 0.00 | 0.15 | 0.03 | 68 | 1014.4 |
| 20260904153543 | 13 | 328 | 3.2 | 8.0 | 0.00 | 0.15 | 0.03 | 69 | 1014.5 |
| 20260904153133 | 13 | 328 | 3.2 | 8.0 | 0.00 | 0.15 | 0.03 | 67 | 1014.4 |